Home   Weather   Kingston   Past weeks

Flag for Norfolk Island Past Weather in Kingston, Norfolk Island — Yesterday and Last 2 Weeks

Now
75 °F

Passing clouds.


Feels Like: 77 °F
Forecast: 69 / 76 °F
Wind: 15 mph from Southeast

Location: Norfolk Island Airport

Current Time: Feb 24, 2017 at 12:40:40 pm

Latest Report: Feb 24, 2017 at 12:00 pm


Visibility: N/A

Pressure: 30.04 "Hg

Humidity: 61%

Dew Point: 61 °F

Location of KingstonLocation

Past Weather in Kingston — Graph

°F

Kingston Temperature Yesterday

Maximum temperature yesterday: 77 °F (at 10:30 am)
Minimum temperature yesterday: 68 °F (at 12:00 am)
Average temperature yesterday: 72 °F

High & Low Weather Summary for the Past Weeks

 TemperatureHumidityPressure
High81 °F (Feb 19, 12:00 pm)100% (Feb 16, 2:41 am)30.07 "Hg (Feb 16, 2:41 am)
Low66 °F (Feb 11, 10:00 pm)50% (Feb 23, 10:00 am)29.74 "Hg (Feb 10, 12:30 am)
Average73 °F80%29.90 "Hg
* Reported Feb 9 11:00 am — Feb 24 11:30 am, Kingston, Weather by CustomWeather, © 2017

Note: Actual official high and low records may vary slightly from our data, if they occured in-between our weather recording intervals... More about our weather records

Advertising

Kingston Weather History for the Previous 24 Hours

Scroll right to see more
 ConditionsComfort  
Time TempWeatherWind HumidityBarometerVisibility
11:30 am
Fri, Feb 24
75 °FPassing clouds.16 mph57%30.04 "HgN/A
11:00 am75 °FPassing clouds.16 mph57%30.04 "HgN/A
10:30 am75 °FPassing clouds.16 mph61%30.04 "HgN/A
10:00 am75 °FPassing clouds.14 mph54%30.04 "HgN/A
9:30 am73 °FPassing clouds.15 mph65%30.04 "HgN/A
9:00 am73 °FPassing clouds.16 mph65%30.04 "HgN/A
8:30 am73 °FPassing clouds.14 mph65%30.04 "HgN/A
8:00 am72 °FPassing clouds.15 mph69%30.04 "HgN/A
7:30 am70 °FSprinkles. Broken clouds.14 mph73%30.04 "HgN/A
7:00 am68 °FBroken clouds.7 mph88%30.04 "HgN/A
6:30 am68 °FSprinkles. Broken clouds.9 mph83%30.04 "HgN/A
6:00 am66 °FSprinkles. More clouds than sun.8 mph83%30.04 "HgN/A
5:39 am66 °FSprinkles. Cloudy.14 mph83%30.04 "Hg4 mi
5:11 am66 °FDrizzle. Mostly cloudy.16 mph83%30.04 "Hg4 mi
5:00 am68 °FMostly cloudy.16 mph78%30.01 "HgN/A
4:30 am70 °FPartly cloudy.16 mph78%30.01 "HgN/A
4:00 am70 °FPassing clouds.13 mph73%30.01 "HgN/A
3:30 am70 °FPassing clouds.10 mph78%30.01 "HgN/A
3:00 am70 °FPassing clouds.13 mph73%30.01 "HgN/A
2:30 am70 °FPartly cloudy.12 mph73%30.01 "HgN/A
2:00 am70 °FPartly cloudy.10 mph78%30.01 "HgN/A
1:30 am70 °FPassing clouds.10 mph73%30.04 "HgN/A
1:00 am70 °FPartly cloudy.10 mph78%30.04 "HgN/A
12:30 am70 °FPassing clouds.10 mph73%30.04 "HgN/A
12:00 am70 °FPartly cloudy.13 mph69%30.04 "HgN/A
11:30 pm
Thu, Feb 23
70 °FPartly cloudy.13 mph73%30.07 "HgN/A
11:00 pm70 °FPassing clouds.13 mph69%30.07 "HgN/A
10:30 pm70 °FSprinkles. Partly cloudy.9 mph78%30.07 "HgN/A
10:00 pm72 °FPartly cloudy.9 mph73%30.07 "HgN/A
9:30 pm72 °FPassing clouds.12 mph65%30.07 "HgN/A
9:00 pm72 °FPassing clouds.10 mph65%30.07 "HgN/A
8:30 pm72 °FPassing clouds.10 mph69%30.07 "HgN/A
8:00 pm72 °FPassing clouds.9 mph69%30.07 "HgN/A
7:30 pm72 °FPassing clouds.10 mph69%30.04 "HgN/A
7:00 pm72 °FClear.13 mph69%30.04 "HgN/A
6:30 pm72 °FPassing clouds.10 mph65%30.04 "HgN/A
6:00 pm72 °FScattered clouds.12 mph69%30.04 "HgN/A
5:30 pm73 °FScattered clouds.12 mph61%30.04 "HgN/A
5:00 pm73 °FPassing clouds.12 mph65%30.01 "HgN/A
4:30 pm75 °FPassing clouds.13 mph61%30.01 "HgN/A
4:00 pm75 °FPassing clouds.14 mph61%30.01 "HgN/A
3:30 pm75 °FPassing clouds.14 mph61%30.01 "HgN/A
3:00 pm77 °FPassing clouds.13 mph54%30.01 "HgN/A
2:30 pm75 °FPassing clouds.15 mph57%30.01 "HgN/A
2:00 pm77 °FPassing clouds.14 mph54%30.04 "HgN/A
1:30 pm77 °FPassing clouds.14 mph57%30.04 "HgN/A
1:00 pm73 °FPassing clouds.15 mph61%30.04 "HgN/A
12:30 pm75 °FPassing clouds.15 mph57%30.04 "HgN/A
12:00 pm77 °FPassing clouds.14 mph54%30.04 "HgN/A
Weather by CustomWeather, © 2017

See weather overviewHow to use our weather pages